Bennington, VT

1:04 AM EDT on September 22, 2017 (GMT -0400)
Morse State

Weather History for KDDH - July, 2013

Change the Weather History Date:

Tuesday, July 30, 2013

  Actual Average Record
Temperature  
Mean Temperature 64 °F 68 °F  
Max Temperature 76 °F 79 °F 87 °F (1999)
Min Temperature 51 °F 57 °F 45 °F (2017)
Degree Days  
Heating Degree Days 1 1  
Month to date heating degree days 10 30  
Since 1 June heating degree days 110 127  
Since 1 July heating degree days 10 30  
Cooling Degree Days 0 4  
Month to date cooling degree days 248 119  
Year to date cooling degree days 378 191  
Since 1 June cooling degree days 346 177  
Growing Degree Days 14 (Base 50)    
Moisture  
Dew Point 55 °F    
Average Humidity 73    
Maximum Humidity 96    
Minimum Humidity 50    
Precipitation  
Precipitation 0.00 in 0.14 in 0.30 in (2000)
Month to date precipitation 5.60 4.20  
Year to date precipitation 27.36 23.40  
Sea Level Pressure  
Sea Level Pressure 30.13 in    
Wind  
Wind Speed 3 mph (WSW)    
Max Wind Speed 10 mph    
Max Gust Speed 24 mph    
Visibility 10 miles    
Events      
T = Trace of Precipitation, MM = Missing Value Source: NWS Daily Summary

Daily Weather History Graph

Daily Weather History Graph

Search for Another Location

Airport or City:

Trip Planner

Search our weather history database for the weather conditions in past years. The results will help you decide how hot, cold, wet, or windy it might be!

Date:

Astronomy

Jul. 30, 2013 Rise Set
Actual Time 5:42 AM EDT 8:15 PM EDT
Civil Twilight 5:09 AM EDT 8:48 PM EDT
Nautical Twilight 4:29 AM EDT 9:28 PM EDT
Astronomical Twilight 3:43 AM EDT 10:13 PM EDT
Moon No Moon Rise 2:32 PM EDT (7/30)
Length of Visible Light 15h 38m
Length of Day
14h 33m
Last Quarter, 41% of the Moon is Illuminated
Jul 30
Last Quarter
Aug 6
New
Aug 14
First Quarter
Aug 20
Full
Aug 28
Last Quarter

Hourly Weather History & Observations

Time (EDT) Temp. Dew Point Humidity Pressure Visibility Wind Dir Wind Speed Gust Speed Precip Events Conditions
12:54 AM 57.0 °F 54.0 °F 89% 30.12 in 10.0 mi Calm Calm - N/A   Clear
1:54 AM 55.9 °F 54.0 °F 93% 30.11 in 10.0 mi Calm Calm - N/A   Partly Cloudy
2:54 AM 54.0 °F 52.0 °F 93% 30.11 in 9.0 mi Calm Calm - N/A   Clear
3:54 AM 54.0 °F 52.0 °F 93% 30.11 in 10.0 mi Calm Calm - N/A   Clear
4:54 AM 52.0 °F 50.0 °F 93% 30.12 in 7.0 mi Calm Calm - N/A   Clear
5:54 AM 52.0 °F 50.0 °F 93% 30.13 in 7.0 mi Calm Calm - N/A   Clear
6:54 AM 55.9 °F 54.0 °F 93% 30.14 in 7.0 mi Calm Calm - N/A   Clear
7:54 AM 62.1 °F 55.9 °F 80% 30.15 in 10.0 mi Calm Calm - N/A   Clear
8:33 AM 62.6 °F 55.4 °F 77% 30.17 in 10.0 mi West 4.6 mph - N/A   Mostly Cloudy
8:54 AM 63.0 °F 55.9 °F 78% 30.17 in 10.0 mi WNW 5.8 mph - N/A   Overcast
9:54 AM 64.9 °F 57.0 °F 75% 30.17 in 10.0 mi SSW 5.8 mph - N/A   Mostly Cloudy
10:13 AM 66.2 °F 57.2 °F 73% 30.18 in 10.0 mi West 9.2 mph - N/A   Mostly Cloudy
10:54 AM 66.9 °F 57.0 °F 70% 30.16 in 10.0 mi Variable 4.6 mph - N/A   Mostly Cloudy
11:54 AM 70.0 °F 57.0 °F 63% 30.15 in 10.0 mi West 9.2 mph - N/A   Scattered Clouds
12:54 PM 70.0 °F 55.9 °F 61% 30.14 in 10.0 mi Variable 3.5 mph - N/A   Mostly Cloudy
1:54 PM 72.0 °F 55.9 °F 57% 30.14 in 10.0 mi Variable 3.5 mph - N/A   Mostly Cloudy
2:54 PM 73.9 °F 55.9 °F 53% 30.11 in 10.0 mi West 6.9 mph - N/A   Mostly Cloudy
3:54 PM 75.0 °F 55.9 °F 51% 30.10 in 10.0 mi West 9.2 mph - N/A   Partly Cloudy
4:54 PM 73.0 °F 57.9 °F 59% 30.09 in 10.0 mi West 3.5 mph - N/A   Mostly Cloudy
5:54 PM 72.0 °F 57.9 °F 61% 30.10 in 10.0 mi West 3.5 mph - N/A   Overcast
6:54 PM 72.0 °F 57.0 °F 59% 30.10 in 10.0 mi WNW 5.8 mph - N/A   Partly Cloudy
7:54 PM 70.0 °F 55.9 °F 61% 30.11 in 10.0 mi Calm Calm - N/A   Overcast
8:54 PM 64.9 °F 55.9 °F 73% 30.12 in 10.0 mi South 4.6 mph - N/A   Mostly Cloudy
9:54 PM 66.0 °F 55.0 °F 68% 30.13 in 10.0 mi SW 4.6 mph - N/A   Overcast
10:54 PM 64.9 °F 55.0 °F 70% 30.13 in 10.0 mi SSW 3.5 mph - N/A   Overcast
11:54 PM 61.0 °F 55.9 °F 83% 30.14 in 10.0 mi Calm Calm - N/A   Partly Cloudy